Location: Unspecified
(0.0000°N, 0.0000°E)
Time: 20:07:12
(UTC+01:00)

N. Korean satellite - Visible Passes

Search period start: 16 February 2019 00:00
Search period end: 26 February 2019 00:00
Orbit: 457 x 510 km, 97.2° (Epoch: 16 February)

Date Brightness Start Highest point End Pass type
(mag) Time Alt. Az. Time Alt. Az. Time Alt. Az.
18 Feb 7.5 06:37:55 10° NNE 06:41:15 51° E 06:44:36 10° S visible
19 Feb 9.6 06:14:06 10° NE 06:16:35 19° ESE 06:19:05 10° SSE visible
19 Feb 10.2 19:35:06 10° SW 19:37:31 16° WSW 19:39:56 10° WNW visible
22 Feb 8.0 06:32:28 10° NNE 06:35:42 40° E 06:38:59 10° S visible
23 Feb 9.9 06:08:54 10° ENE 06:11:02 16° ESE 06:13:11 10° SE visible
